AAL498 MROC-KMIA

Flight info

Callsign AAL498
Flight time N/A
Altitude 34000
Route NANJO4R RADON UB767 BLU/N0458F360 UB767 PZA UZ751 SELEK UL345 IKBIX SNDBR3
Aircraft B752/M-SDE2E3FGHIJ3J4J7RWXY/LB1

Departure

Time 2026-05-05 01:34
Airport Juan Santamaría International Airport (MROC)

Arrival

Time N/A
Airport Miami International Airport (KMIA)
Time Latitude Longitude Altitude Speed Heading
2026-05-05 00:57 9.99775 -84.20257 3100 ft 0 kts 338°
2026-05-05 01:22 9.99773 -84.20256 3100 ft 2 kts 339°
2026-05-05 01:23 9.99759 -84.20250 3100 ft 2 kts 338°
2026-05-05 01:23 9.99745 -84.20245 3100 ft 2 kts 340°
2026-05-05 01:23 9.99730 -84.20246 3100 ft 2 kts 29°
2026-05-05 01:23 9.99721 -84.20255 3100 ft 0 kts 65°
2026-05-05 01:24 9.99719 -84.20260 3100 ft 1 kts 70°
2026-05-05 01:24 9.99718 -84.20262 3100 ft 0 kts 69°
2026-05-05 01:27 9.99720 -84.20257 3100 ft 2 kts 68°
2026-05-05 01:27 9.99731 -84.20229 3100 ft 6 kts 68°
2026-05-05 01:28 9.99751 -84.20179 3100 ft 8 kts 69°
2026-05-05 01:28 9.99772 -84.20127 3100 ft 7 kts 69°
2026-05-05 01:28 9.99788 -84.20080 3100 ft 6 kts 70°
2026-05-05 01:28 9.99803 -84.20038 3100 ft 5 kts 77°
2026-05-05 01:29 9.99803 -84.20024 3100 ft 0 kts 104°
2026-05-05 01:29 9.99802 -84.20021 3100 ft 1 kts 104°
2026-05-05 01:29 9.99798 -84.20010 3100 ft 5 kts 117°
2026-05-05 01:30 9.99743 -84.19975 3100 ft 13 kts 161°
2026-05-05 01:30 9.99651 -84.19941 3100 ft 13 kts 159°
2026-05-05 01:30 9.99595 -84.19903 3100 ft 7 kts 104°
2026-05-05 01:30 9.99602 -84.19841 3100 ft 10 kts 72°
2026-05-05 01:31 9.99630 -84.19760 3100 ft 12 kts 70°
2026-05-05 01:31 9.99660 -84.19680 3101 ft 11 kts 68°
2026-05-05 01:31 9.99687 -84.19612 3101 ft 9 kts 69°
2026-05-05 01:31 9.99710 -84.19553 3101 ft 8 kts 69°
2026-05-05 01:32 9.99738 -84.19513 3101 ft 6 kts 29°
2026-05-05 01:32 9.99784 -84.19512 3101 ft 4 kts 346°
2026-05-05 01:32 9.99798 -84.19516 3101 ft 4 kts 340°
2026-05-05 01:32 9.99854 -84.19540 3101 ft 9 kts 322°
2026-05-05 01:33 9.99870 -84.19592 3101 ft 6 kts 255°
2026-05-05 01:33 9.99841 -84.19674 3101 ft 32 kts 250°
2026-05-05 01:33 9.99661 -84.20158 3100 ft 113 kts 249°
2026-05-05 01:33 9.99290 -84.21145 3124 ft 181 kts 250°
2026-05-05 01:34 9.98824 -84.22472 3498 ft 217 kts 251°
2026-05-05 01:34 9.98280 -84.23945 4315 ft 231 kts 250°
2026-05-05 01:34 9.98004 -84.25556 4961 ft 240 kts 278°
2026-05-05 01:34 9.98613 -84.27173 5443 ft 256 kts 311°
2026-05-05 01:35 9.99989 -84.28311 6260 ft 257 kts 332°
2026-05-05 01:35 10.01531 -84.29286 6940 ft 271 kts 329°
2026-05-05 01:35 10.03156 -84.30367 7552 ft 285 kts 329°
2026-05-05 01:35 10.04821 -84.31481 8392 ft 290 kts 329°
2026-05-05 01:36 10.06520 -84.32622 9204 ft 295 kts 329°
2026-05-05 01:36 10.08241 -84.33775 10026 ft 299 kts 331°
2026-05-05 01:36 10.10169 -84.34585 10583 ft 307 kts 351°
2026-05-05 01:36 10.12372 -84.34684 10908 ft 324 kts 10°
2026-05-05 01:37 10.14590 -84.34036 11251 ft 339 kts 27°
2026-05-05 01:37 10.16740 -84.32914 11687 ft 352 kts 28°
2026-05-05 01:37 10.18967 -84.31834 12422 ft 355 kts 26°
2026-05-05 01:37 10.21238 -84.30772 13009 ft 361 kts 26°
2026-05-05 01:38 10.23544 -84.29724 13671 ft 365 kts 25°
2026-05-05 01:38 10.25879 -84.28678 14295 ft 369 kts 25°
2026-05-05 01:38 10.28248 -84.27617 14898 ft 372 kts 26°
2026-05-05 01:38 10.30597 -84.26458 15474 ft 376 kts 27°
2026-05-05 01:39 10.32956 -84.25289 16071 ft 380 kts 27°
2026-05-05 01:39 10.35352 -84.24104 16631 ft 383 kts 27°
2026-05-05 01:39 10.37769 -84.22912 17210 ft 387 kts 27°
2026-05-05 01:39 10.40215 -84.21706 17753 ft 388 kts 26°
2026-05-05 01:40 10.42632 -84.20546 17841 ft 382 kts 25°
2026-05-05 01:40 10.45034 -84.19377 17825 ft 381 kts 26°
2026-05-05 01:40 10.47437 -84.18201 17811 ft 380 kts 26°
2026-05-05 01:40 10.49823 -84.17028 17813 ft 379 kts 26°
2026-05-05 01:41 10.52212 -84.15852 17821 ft 379 kts 26°
2026-05-05 01:41 10.54512 -84.14718 17817 ft 378 kts 26°
2026-05-05 01:41 10.56886 -84.13547 17825 ft 377 kts 26°
2026-05-05 01:41 10.59256 -84.12377 17819 ft 377 kts 26°
2026-05-05 01:42 10.61629 -84.11206 17800 ft 376 kts 26°
2026-05-05 01:42 10.63992 -84.10039 17796 ft 376 kts 26°
2026-05-05 01:42 10.66350 -84.08875 17804 ft 375 kts 26°
2026-05-05 01:42 10.68707 -84.07710 17816 ft 375 kts 26°
2026-05-05 01:43 10.71162 -84.06781 17869 ft 375 kts 14°
2026-05-05 01:43 10.73714 -84.06188 17858 ft 374 kts 13°
2026-05-05 01:43 10.76259 -84.05586 17856 ft 374 kts 13°
2026-05-05 01:43 10.78799 -84.04994 17845 ft 374 kts 13°
2026-05-05 01:44 10.81364 -84.04402 17851 ft 375 kts 13°
2026-05-05 01:44 10.83922 -84.03814 17886 ft 376 kts 13°
2026-05-05 01:44 10.86489 -84.03226 17886 ft 377 kts 13°
2026-05-05 01:44 10.89070 -84.02635 17882 ft 377 kts 13°
2026-05-05 01:45 10.91644 -84.02048 17854 ft 378 kts 13°
2026-05-05 01:45 10.94219 -84.01459 17895 ft 378 kts 13°
2026-05-05 01:45 10.96800 -84.00869 17866 ft 379 kts 13°
2026-05-05 01:45 10.99398 -84.00276 17849 ft 380 kts 13°
2026-05-05 01:46 11.01974 -83.99686 17863 ft 380 kts 13°
2026-05-05 01:46 11.04576 -83.99091 17851 ft 380 kts 13°
2026-05-05 01:46 11.07176 -83.98497 17851 ft 380 kts 13°
2026-05-05 01:46 11.09776 -83.97902 17852 ft 381 kts 13°
2026-05-05 01:47 11.12381 -83.97307 17853 ft 381 kts 13°
2026-05-05 01:47 11.14985 -83.96711 17849 ft 381 kts 13°
2026-05-05 01:47 11.17596 -83.96114 17853 ft 381 kts 13°
2026-05-05 01:47 11.20194 -83.95519 17856 ft 381 kts 13°
2026-05-05 01:48 11.22807 -83.94922 17858 ft 381 kts 13°
2026-05-05 01:48 11.25412 -83.94326 17855 ft 382 kts 13°
2026-05-05 01:48 11.28018 -83.93736 17852 ft 382 kts 11°
2026-05-05 01:48 11.30677 -83.93579 17883 ft 383 kts 354°
2026-05-05 01:49 11.33274 -83.94226 17883 ft 385 kts 337°
2026-05-05 01:49 11.35571 -83.95628 17887 ft 386 kts 320°
2026-05-05 01:49 11.37371 -83.97669 17891 ft 388 kts 303°
2026-05-05 01:49 11.38504 -84.00173 17884 ft 389 kts 285°
2026-05-05 01:50 11.38861 -84.02902 17887 ft 390 kts 268°
2026-05-05 01:50 11.38414 -84.05620 17886 ft 390 kts 251°
2026-05-05 01:50 11.37203 -84.08084 17892 ft 390 kts 233°
2026-05-05 01:50 11.35341 -84.10073 17899 ft 389 kts 216°
2026-05-05 01:51 11.32978 -84.11426 17897 ft 387 kts 199°
2026-05-05 01:51 11.30405 -84.12285 17875 ft 388 kts 196°
2026-05-05 01:51 11.27822 -84.13101 17870 ft 388 kts 196°
2026-05-05 01:51 11.25224 -84.13924 17874 ft 388 kts 196°
2026-05-05 01:52 11.22660 -84.14839 17869 ft 389 kts 204°
2026-05-05 01:52 11.20335 -84.16274 17876 ft 390 kts 218°
2026-05-05 01:52 11.18270 -84.18080 17885 ft 390 kts 219°
2026-05-05 01:52 11.16114 -84.19792 17881 ft 391 kts 216°
2026-05-05 01:53 11.13898 -84.21427 17878 ft 391 kts 214°
2026-05-05 01:53 11.11659 -84.23014 17879 ft 391 kts 213°
2026-05-05 01:53 11.09398 -84.24575 17876 ft 391 kts 213°
2026-05-05 01:53 11.07126 -84.26122 17875 ft 391 kts 213°
2026-05-05 01:54 11.04846 -84.27660 17873 ft 391 kts 213°
2026-05-05 01:54 11.02563 -84.29194 17867 ft 391 kts 213°
2026-05-05 01:54 11.00282 -84.30722 17865 ft 391 kts 212°
2026-05-05 01:54 10.97996 -84.32251 17864 ft 391 kts 212°
2026-05-05 01:55 10.95707 -84.33781 17863 ft 391 kts 212°
2026-05-05 01:55 10.93420 -84.35307 17860 ft 392 kts 212°
2026-05-05 01:55 10.91120 -84.36818 17862 ft 391 kts 208°
2026-05-05 01:55 10.88649 -84.37890 17893 ft 388 kts 197°
2026-05-05 01:56 10.86063 -84.38763 17868 ft 389 kts 198°
2026-05-05 01:56 10.83491 -84.39646 17889 ft 388 kts 197°
2026-05-05 01:56 10.80903 -84.40520 17879 ft 389 kts 197°
2026-05-05 01:56 10.78322 -84.41387 17876 ft 389 kts 197°
2026-05-05 01:57 10.75727 -84.42254 17881 ft 389 kts 197°
2026-05-05 01:57 10.73137 -84.43117 17880 ft 389 kts 197°
2026-05-05 01:57 10.70550 -84.43979 17874 ft 389 kts 197°
2026-05-05 01:57 10.67972 -84.44838 17862 ft 389 kts 197°
2026-05-05 01:58 10.65391 -84.45699 17811 ft 387 kts 197°
2026-05-05 01:58 10.62824 -84.46555 17795 ft 386 kts 197°
2026-05-05 01:58 10.60257 -84.47408 17776 ft 385 kts 197°
2026-05-05 01:58 10.57703 -84.48256 17778 ft 385 kts 197°
2026-05-05 01:59 10.55133 -84.49109 17727 ft 386 kts 197°
2026-05-05 01:59 10.52571 -84.49960 17709 ft 386 kts 197°
2026-05-05 01:59 10.49995 -84.50816 17489 ft 391 kts 197°
2026-05-05 01:59 10.47375 -84.51697 16911 ft 395 kts 198°
2026-05-05 02:00 10.44858 -84.52554 16558 ft 367 kts 197°
2026-05-05 02:00 10.42461 -84.53344 16151 ft 357 kts 196°
2026-05-05 02:00 10.40088 -84.54115 15750 ft 356 kts 197°
2026-05-05 02:00 10.37713 -84.54895 15332 ft 355 kts 197°
2026-05-05 02:01 10.35356 -84.55672 14919 ft 355 kts 197°
2026-05-05 02:01 10.32949 -84.56467 14497 ft 370 kts 197°
2026-05-05 02:01 10.30489 -84.57299 14003 ft 371 kts 197°
2026-05-05 02:01 10.28073 -84.58121 13446 ft 356 kts 197°
2026-05-05 02:02 10.25764 -84.58894 13214 ft 342 kts 196°
2026-05-05 02:02 10.23474 -84.59638 12994 ft 347 kts 196°
2026-05-05 02:02 10.21117 -84.60405 12574 ft 358 kts 197°
2026-05-05 02:02 10.18841 -84.61178 12259 ft 331 kts 197°
2026-05-05 02:03 10.16707 -84.61731 12174 ft 298 kts 180°
2026-05-05 02:03 10.14691 -84.61468 12260 ft 292 kts 160°
2026-05-05 02:03 10.12724 -84.60709 11856 ft 311 kts 154°
2026-05-05 02:03 10.10729 -84.59766 11386 ft 316 kts 151°
2026-05-05 02:04 10.08766 -84.58751 10815 ft 316 kts 149°
2026-05-05 02:04 10.06853 -84.57693 10585 ft 304 kts 148°
2026-05-05 02:04 10.04996 -84.56627 10081 ft 302 kts 147°
2026-05-05 02:04 10.03214 -84.55581 10015 ft 285 kts 147°
2026-05-05 02:05 10.01553 -84.54595 10004 ft 267 kts 147°
2026-05-05 02:05 9.99991 -84.53661 9985 ft 250 kts 146°
2026-05-05 02:05 9.98541 -84.52786 9978 ft 234 kts 146°
2026-05-05 02:05 9.97131 -84.51909 9759 ft 244 kts 144°
2026-05-05 02:06 9.95638 -84.50992 9425 ft 255 kts 146°
2026-05-05 02:06 9.94101 -84.50075 9041 ft 257 kts 147°
2026-05-05 02:06 9.92546 -84.49145 8565 ft 260 kts 146°
2026-05-05 02:06 9.91181 -84.47973 8114 ft 255 kts 121°
2026-05-05 02:07 9.90568 -84.46323 7703 ft 249 kts 91°
2026-05-05 02:07 9.90811 -84.44619 7293 ft 246 kts 72°
2026-05-05 02:07 9.91335 -84.42950 6879 ft 246 kts 71°
2026-05-05 02:07 9.91852 -84.41372 6893 ft 226 kts 70°
2026-05-05 02:08 9.92370 -84.39873 6466 ft 227 kts 69°
2026-05-05 02:08 9.92903 -84.38381 6209 ft 213 kts 69°
2026-05-05 02:08 9.93385 -84.37053 5954 ft 192 kts 68°
2026-05-05 02:08 9.93838 -84.35825 5544 ft 180 kts 68°
2026-05-05 02:09 9.94290 -84.34674 5169 ft 173 kts 66°
2026-05-05 02:09 9.94791 -84.33572 4841 ft 171 kts 65°
2026-05-05 02:09 9.95212 -84.32456 4768 ft 170 kts 69°
2026-05-05 02:09 9.95546 -84.31281 4728 ft 175 kts 72°
2026-05-05 02:10 9.95887 -84.30093 4711 ft 174 kts 65°
2026-05-05 02:10 9.96315 -84.28967 4567 ft 167 kts 69°
2026-05-05 02:10 9.96657 -84.27871 4155 ft 158 kts 68°
2026-05-05 02:10 9.97068 -84.26882 3875 ft 150 kts 63°
2026-05-05 02:11 9.97496 -84.25920 3833 ft 148 kts 67°
2026-05-05 02:11 9.97854 -84.24942 3690 ft 148 kts 65°
2026-05-05 02:11 9.98236 -84.23921 3491 ft 161 kts 68°
2026-05-05 02:11 9.98638 -84.22850 3282 ft 162 kts 64°
2026-05-05 02:12 9.99036 -84.21824 3098 ft 146 kts 71°
2026-05-05 02:12 9.99453 -84.20712 3099 ft 39 kts 70°
2026-05-05 02:12 9.99533 -84.20492 3099 ft 26 kts 68°
2026-05-05 02:13 9.99613 -84.20424 3099 ft 11 kts 348°
2026-05-05 02:13 9.99646 -84.20426 3099 ft 1 kts 21°
2026-05-05 02:13 9.99650 -84.20425 3099 ft 0 kts
2026-05-05 02:14 9.99652 -84.20425 3099 ft 1 kts 358°
2026-05-05 02:15 9.99658 -84.20442 3098 ft 0 kts 242°
2026-05-05 02:15 9.99657 -84.20443 3099 ft 0 kts 231°
2026-05-05 02:15 9.99651 -84.20449 3099 ft 0 kts 220°
2026-05-05 02:18 9.99649 -84.20451 3099 ft 1 kts 224°
2026-05-05 02:18 9.99641 -84.20473 3099 ft 4 kts 249°
2026-05-05 02:18 9.99635 -84.20495 3099 ft 4 kts 268°
2026-05-05 02:18 9.99644 -84.20523 3099 ft 4 kts 307°
2026-05-05 02:19 9.99670 -84.20539 3099 ft 4 kts 341°
2026-05-05 02:19 9.99685 -84.20544 3099 ft 0 kts 339°